Tracking 21045 objects as of 3-Aug-2020
HD Live streaming from Space Station
objects crossing your sky now

COSMOS 531

Track COSMOS 531 now!
10-day predictions
COSMOS 531 is classified as:


NORAD ID: 6266
Int'l Code: 1972-087D
Perigee: 1,427.2 km
Apogee: 1,476.4 km
Inclination: 74.0 °
Period: 114.8 minutes
Semi major axis: 7822 km
RCS: 0.7441 m2 (medium)
Launch date: November 1, 1972
Source: Commonwealth of Independent States (former USSR) (CIS)
Launch site: PLESETSK MISSILE AND SPACE COMPLEX (PKMTR)
aabbcc
Your satellite tracking list
Your tracking list is empty




NASA's NSSDC Master Catalog

Two Line Element Set (TLE):
1  6266U 72087D   20215.84425907 -.00000014 +00000-0 +13667-4 0  9996
2  6266 074.0352 109.5092 0031459 296.2744 128.8453 12.54762167187340
Source of the keplerian elements: AFSPC